{"data":{"norad_id":68450,"intl_designator":"2026-067AL","name":"IRIDE-MS1-EAGLET 2-13","alt_names":[],"object_type":"PAYLOAD","status":"ACTIVE","operator":null,"country":"IT","launch_date":"2026-03-30","launch_site_code":"AFWTR","launch_vehicle":null,"mission":null,"orbit_class":"UNKNOWN","rcs_meters":null,"size_class":null,"mass_kg":null,"dimensions":null,"purposes":[],"wikipedia_slug":null,"has_3d_model":false,"image_url":null,"decayed_at":null,"tle_current":{"epoch":"2026-05-25T03:10:14.060352Z","epoch_age_seconds":74119,"freshness":"FRESH","line1":"1 68450U 26067AL  26145.13210718  .00006521  00000+0  31970-3 0  9991","line2":"2 68450  97.4532 103.9520 0004068  94.6422 265.5277 15.18456061  8447","mean_motion":15.18456061,"eccentricity":0.0004068,"inclination_deg":97.4532,"raan_deg":103.952,"arg_perigee_deg":94.6422,"mean_anomaly_deg":265.5277,"bstar":0.0003197,"rev_number":844,"period_min":94.833168834116,"perigee_km":507.70386027039,"apogee_km":513.30846034562,"semimajor_km":6888.643160308,"source":"CELESTRAK","updated_at":"2026-05-25T13:38:07.842091Z"}}}